• In United Kingdom
  • List of Countries
  • For 7 days
  • Water Temperature
  • Satellite Maps
  • Weather Map
  • Weather Widgets
  • user-avatar
    Login

    Hourly Weather Prutz

    Today, 21 August, Monday

    Time Temperature Precipitation Wind Pressure Humidity
    00:00 +6°C° 0 mm 1 mps 638 mmHg 89%
    01:00 +6°C° 0 mm 1 mps 637 mmHg 89%
    02:00 +6°C° 0 mm 1 mps 637 mmHg 87%
    03:00 +5°C° 0 mm 1 mps 637 mmHg 85%
    04:00 +5°C° 0 mm 1 mps 637 mmHg 83%
    05:00 +6°C° 0 mm 1 mps 637 mmHg 77%
    06:00 +8°C° 0 mm 1 mps 638 mmHg 71%
    07:00 +9°C° 0 mm 1 mps 638 mmHg 66%
    08:00 +11°C° 0 mm 1 mps 639 mmHg 59%
    09:00 +12°C° 0 mm 1 mps 639 mmHg 52%
    10:00 +14°C° 0 mm 2 mps 640 mmHg 45%
    11:00 +14°C° 0.1 mm 2 mps 640 mmHg 46%
    12:00 +15°C° 0.1 mm 1 mps 639 mmHg 46%
    13:00 +15°C° 0.1 mm 1 mps 639 mmHg 47%
    14:00 +15°C° 0 mm 1 mps 639 mmHg 48%
    15:00 +15°C° 0 mm 1 mps 639 mmHg 50%
    16:00 +15°C° 0 mm 1 mps 639 mmHg 51%
    17:00 +13°C° 0 mm 1 mps 638 mmHg 58%
    18:00 +12°C° 0 mm 1 mps 638 mmHg 66%
    19:00 +11°C° 0 mm 1 mps 638 mmHg 73%
    20:00 +10°C° 0 mm 1 mps 638 mmHg 76%
    21:00 +9°C° 0 mm 1 mps 638 mmHg 79%
    22:00 +8°C° 0 mm 1 mps 637 mmHg 82%
    23:00 +7°C° 0 mm 1 mps 637 mmHg 82%

    Tomorrow, 22 August, Tuesday

    Time Temperature Precipitation Wind Pressure Humidity
    00:00 +7°C° 0 mm 1 mps 637 mmHg 81%
    01:00 +7°C° 0 mm 1 mps 637 mmHg 81%
    02:00 +7°C° 0 mm 1 mps 637 mmHg 81%
    03:00 +7°C° 0 mm 1 mps 637 mmHg 81%
    04:00 +7°C° 0 mm 1 mps 637 mmHg 80%
    05:00 +8°C° 0 mm 1 mps 637 mmHg 77%
    06:00 +10°C° 0 mm 1 mps 638 mmHg 74%
    07:00 +11°C° 0 mm 1 mps 638 mmHg 71%
    08:00 +14°C° 0 mm 1 mps 639 mmHg 65%
    09:00 +16°C° 0 mm 1 mps 639 mmHg 59%
    10:00 +19°C° 0 mm 1 mps 640 mmHg 54%
    11:00 +20°C° 0 mm 1 mps 640 mmHg 52%
    12:00 +19°C° 0 mm 2 mps 640 mmHg 50%
    13:00 +20°C° 0 mm 2 mps 640 mmHg 48%
    14:00 +20°C° 0 mm 2 mps 639 mmHg 50%
    15:00 +20°C° 0 mm 2 mps 639 mmHg 52%
    16:00 +19°C° 0 mm 2 mps 638 mmHg 54%
    17:00 +18°C° 0 mm 2 mps 638 mmHg 65%
    18:00 +16°C° 0 mm 2 mps 637 mmHg 75%
    19:00 +14°C° 0 mm 1 mps 637 mmHg 86%
    20:00 +12°C° 0 mm 1 mps 637 mmHg 89%
    21:00 +11°C° 0 mm 1 mps 636 mmHg 92%
    22:00 +10°C° 0 mm 1 mps 636 mmHg 95%
    23:00 +10°C° 0 mm 1 mps 636 mmHg 94%

    Day after tomorrow, 23 August, Wednesday

    Time Temperature Precipitation Wind Pressure Humidity
    00:00 +10°C° 0 mm 1 mps 636 mmHg 93%
    01:00 +10°C° 0 mm 1 mps 636 mmHg 93%
    02:00 +9°C° 0 mm 1 mps 636 mmHg 90%
    03:00 +9°C° 0 mm 1 mps 635 mmHg 86%
    04:00 +9°C° 0 mm 1 mps 635 mmHg 83%
    05:00 +10°C° 0 mm 1 mps 636 mmHg 78%
    06:00 +12°C° 0 mm 1 mps 636 mmHg 72%
    07:00 +13°C° 0 mm 1 mps 637 mmHg 66%
    08:00 +16°C° 0 mm 1 mps 638 mmHg 57%
    09:00 +19°C° 0 mm 1 mps 638 mmHg 49%
    10:00 +22°C° 0 mm 1 mps 639 mmHg 40%
    11:00 +22°C° 0 mm 1 mps 639 mmHg 38%
    12:00 +23°C° 0 mm 1 mps 639 mmHg 35%
    13:00 +24°C° 0 mm 1 mps 639 mmHg 33%
    14:00 +24°C° 0 mm 2 mps 639 mmHg 35%
    15:00 +24°C° 0 mm 2 mps 639 mmHg 37%
    16:00 +23°C° 0 mm 2 mps 639 mmHg 38%
    17:00 +20°C° 0.1 mm 2 mps 638 mmHg 50%
    18:00 +18°C° 0.1 mm 1 mps 637 mmHg 62%
    19:00 +15°C° 0.1 mm 1 mps 637 mmHg 74%
    20:00 +14°C° 0 mm 1 mps 637 mmHg 75%
    21:00 +13°C° 0 mm 1 mps 637 mmHg 76%
    22:00 +12°C° 0 mm 1 mps 637 mmHg 77%
    23:00 +12°C° 0 mm 1 mps 637 mmHg 75%

    24 August, Thursday

    Time Temperature Precipitation Wind Pressure Humidity
    00:00 +12°C° 0 mm 1 mps 637 mmHg 73%
    01:00 +12°C° 0 mm 1 mps 637 mmHg 72%
    02:00 +11°C° 0 mm 1 mps 636 mmHg 71%
    03:00 +11°C° 0 mm 1 mps 636 mmHg 70%
    04:00 +11°C° 0 mm 1 mps 636 mmHg 70%
    05:00 +13°C° 0 mm 1 mps 637 mmHg 67%
    06:00 +14°C° 0 mm 1 mps 637 mmHg 65%
    07:00 +15°C° 0 mm 1 mps 638 mmHg 62%
    08:00 +18°C° 0 mm 1 mps 638 mmHg 56%
    09:00 +20°C° 0 mm 1 mps 639 mmHg 49%
    10:00 +22°C° 0 mm 1 mps 640 mmHg 42%
    11:00 +23°C° 0 mm 1 mps 640 mmHg 42%
    12:00 +23°C° 0 mm 1 mps 640 mmHg 42%
    13:00 +24°C° 0 mm 1 mps 640 mmHg 41%
    14:00 +23°C° 0.3 mm 1 mps 639 mmHg 47%
    15:00 +22°C° 0.3 mm 1 mps 639 mmHg 53%
    16:00 +21°C° 0.3 mm 1 mps 639 mmHg 59%
    17:00 +20°C° 0.6 mm 1 mps 638 mmHg 67%
    18:00 +18°C° 0.6 mm 1 mps 638 mmHg 75%
    19:00 +16°C° 0.6 mm 1 mps 637 mmHg 83%
    20:00 +15°C° 0.2 mm 1 mps 637 mmHg 84%
    21:00 +15°C° 0.2 mm 1 mps 637 mmHg 85%
    22:00 +14°C° 0.2 mm 2 mps 637 mmHg 86%
    23:00 +14°C° 0.1 mm 2 mps 637 mmHg 87%

    25 August, Friday

    Time Temperature Precipitation Wind Pressure Humidity
    00:00 +13°C° 0.1 mm 2 mps 637 mmHg 87%
    01:00 +13°C° 0.1 mm 2 mps 636 mmHg 87%
    02:00 +13°C° 0 mm 2 mps 636 mmHg 87%
    03:00 +12°C° 0 mm 2 mps 636 mmHg 87%
    04:00 +12°C° 0 mm 2 mps 636 mmHg 87%
    05:00 +13°C° 0 mm 2 mps 636 mmHg 85%
    06:00 +14°C° 0 mm 2 mps 636 mmHg 83%
    07:00 +14°C° 0 mm 2 mps 637 mmHg 81%
    08:00 +16°C° 0 mm 2 mps 637 mmHg 72%
    09:00 +19°C° 0 mm 2 mps 638 mmHg 63%
    10:00 +21°C° 0 mm 2 mps 638 mmHg 55%
    11:00 +20°C° 0.3 mm 2 mps 638 mmHg 58%
    12:00 +20°C° 0.3 mm 2 mps 638 mmHg 62%
    13:00 +20°C° 0.3 mm 2 mps 638 mmHg 66%
    14:00 +19°C° 1.1 mm 2 mps 637 mmHg 72%
    15:00 +18°C° 1.1 mm 2 mps 637 mmHg 77%
    16:00 +17°C° 1.1 mm 2 mps 637 mmHg 83%
    17:00 +16°C° 1.4 mm 1 mps 637 mmHg 87%
    18:00 +16°C° 1.4 mm 1 mps 637 mmHg 91%
    19:00 +15°C° 1.4 mm 1 mps 637 mmHg 95%
    20:00 +15°C° 1.1 mm 1 mps 637 mmHg 95%
    21:00 +14°C° 1.1 mm 1 mps 637 mmHg 95%
    22:00 +14°C° 1.1 mm 1 mps 637 mmHg 96%
    23:00 +14°C° 0.7 mm 1 mps 637 mmHg 95%

    26 August, Saturday

    Time Temperature Precipitation Wind Pressure Humidity
    00:00 +13°C° 0.7 mm 1 mps 637 mmHg 95%
    01:00 +13°C° 0.7 mm 1 mps 636 mmHg 94%
    02:00 +13°C° 0.1 mm 2 mps 636 mmHg 94%
    03:00 +12°C° 0.1 mm 2 mps 636 mmHg 93%
    04:00 +12°C° 0.1 mm 2 mps 636 mmHg 92%
    05:00 +13°C° 0 mm 2 mps 636 mmHg 90%
    06:00 +13°C° 0 mm 2 mps 636 mmHg 89%
    07:00 +14°C° 0 mm 2 mps 637 mmHg 87%
    08:00 +16°C° 0.1 mm 2 mps 637 mmHg 77%
    09:00 +18°C° 0.1 mm 2 mps 638 mmHg 68%
    10:00 +20°C° 0.1 mm 2 mps 638 mmHg 59%
    11:00 +21°C° 0.2 mm 2 mps 638 mmHg 56%
    12:00 +21°C° 0.2 mm 2 mps 638 mmHg 54%
    13:00 +22°C° 0.2 mm 3 mps 638 mmHg 51%
    14:00 +21°C° 1.1 mm 2 mps 638 mmHg 57%
    15:00 +21°C° 1.1 mm 2 mps 638 mmHg 63%
    16:00 +20°C° 1.1 mm 2 mps 637 mmHg 68%
    17:00 +18°C° 1.4 mm 2 mps 637 mmHg 75%
    18:00 +17°C° 1.4 mm 2 mps 636 mmHg 81%
    19:00 +16°C° 1.4 mm 2 mps 636 mmHg 87%
    20:00 +15°C° 0.2 mm 2 mps 636 mmHg 88%
    21:00 +14°C° 0.2 mm 2 mps 636 mmHg 90%
    22:00 +12°C° 0.2 mm 3 mps 636 mmHg 92%
    23:00 +12°C° 0.1 mm 3 mps 635 mmHg 91%
    Show more